リニア彗星

247P/LINEAR (2018)

English version
Home page
Updated on April 21, 2019

---------------------------------------------------------------------

・ プロフィール

・ 写真集

・ 軌道要素

Epoch 2018 Nov. 18.0 TT = JDT 2458440.5
T 2018 Dec. 2.10348 TT                                  MPCW
q   1.4890611            (2000.0)            P               Q
n   0.12454434     Peri.   47.44868     -0.18181138     -0.96458470
a   3.9711844      Node    54.01082     +0.81874575     -0.25612941
e   0.6250335      Incl.   13.66154     +0.54460997     +0.06304033
P   7.91
From 960 observations 2002 Nov. 5-2018 Oct. 13, mean residual 0".5.

・ 光度変化

        m1 = 14.0 + 5 logΔ + 22.0 log r(t - 30)

---------------------------------------------------------------------

軌道要素はM.P.E.C. 2018-U70に掲載されたものです。
光度グラフはComet for Windowsで作成したものです。

---------------------------------------------------------------------

Copyright(C) Seiichi Yoshida (comet@aerith.net). All rights reserved.